Date,TemperatureHighF,TemperatureAvgF,TemperatureLowF,DewpointHighF,DewpointAvgF,DewpointLowF,HumidityHigh,HumidityAvg,HumidityLow,PressureMaxIn,PressureMinIn,WindSpeedMaxMPH,WindSpeedAvgMPH,GustSpeedMaxMPH,PrecipitationSumIn
2013-3-1,33,28,25,27,25,22,95,86,76,29.91,29.81,40,20,53,0.00
2013-3-2,33,28,22,26,23,17,96,83,58,29.88,29.81,38,21,48,0.00
2013-3-3,26,21,17,18,14,11,86,74,62,29.92,29.82,38,27,53,0.00
2013-3-4,42,31,19,27,16,12,81,57,33,30.11,29.92,37,19,44,0.00
2013-3-5,46,42,35,46,36,23,99,82,49,30.07,29.66,40,28,47,0.42
2013-3-6,34,25,22,31,21,16,96,85,70,30.04,29.66,51,30,69,0.36
2013-3-7,40,31,22,27,21,-12,96,72,10,30.22,30.03,38,23,51,0.00
2013-3-8,45,40,34,21,-2,-43,41,21,2,30.30,30.19,43,21,46,0.00
2013-3-9,51,45,36,27,20,5,56,39,18,30.35,30.27,17,6,17,0.00
2013-3-10,52,48,43,34,30,25,63,49,42,30.32,30.23,32,12,35,0.00
2013-3-11,53,46,42,49,44,33,99,93,54,30.23,29.91,35,27,42,0.63
2013-3-12,50,44,35,50,36,20,100,76,41,30.01,29.81,35,22,41,1.30
2013-3-13,41,35,24,28,21,16,76,58,37,30.11,30.00,33,18,42,0.01
2013-3-14,40,29,19,16,11,2,78,51,24,30.26,30.08,44,20,59,0.00
2013-3-15,60,45,32,40,26,5,72,50,28,30.17,30.01,32,20,43,0.00
2013-3-16,66,58,52,44,41,39,63,54,42,30.01,29.88,38,26,50,0.00
2013-3-17,62,57,40,47,43,39,97,62,48,30.10,29.98,31,18,46,0.00
2013-3-18,49,39,32,46,38,32,100,98,80,30.10,29.90,38,11,43,0.74
2013-3-19,51,44,35,44,28,9,98,58,26,30.09,29.87,40,21,48,0.30
2013-3-20,44,37,31,24,9,-2,72,30,23,30.10,29.83,30,18,36,0.01
2013-3-21,31,24,17,27,13,6,95,63,43,29.89,29.75,35,20,46,0.00
2013-3-22,40,30,22,27,15,9,62,53,44,30.01,29.89,24,14,27,0.00
2013-3-23,44,41,36,42,35,23,98,82,57,30.02,29.91,22,12,25,0.02
2013-3-24,43,36,32,42,35,32,99,98,80,29.95,29.56,34,15,40,0.87
2013-3-25,34,29,26,34,23,17,99,78,61,29.87,29.54,26,16,35,0.07
2013-3-26,31,26,22,23,20,18,90,79,66,30.14,29.83,35,22,48,0.00
2013-3-27,40,30,24,23,21,18,89,72,50,30.23,30.11,33,20,46,0.00
2013-3-28,44,34,27,22,18,14,75,54,29,30.29,30.19,29,20,39,0.00
2013-3-29,48,41,36,36,24,15,83,51,35,30.35,30.25,22,12,26,0.00
2013-3-30,53,47,41,42,37,32,88,69,53,30.25,30.13,22,12,28,0.04
2013-3-31,55,49,45,51,46,-100,99,94,60,30.13,29.91,33,23,40,0.34